Location: Navajo
(48.7922°N, 105.0603°W)
Time: 16:32:35
(UTC+00:00)

ITUPSAT 1 - Pass Details

Date: 01 July 2022
Orbit: 701 x 711 km, 98.6° (Epoch: 13 August)

Event Time Altitude Azimuth Distance (km) Brightness Sun altitude
Rises 04:21:08 0° 8° (N) 3,112 ? -9.4°
Reaches altitude 10° 04:23:31 10° 0° (N) 2,190 ? -9.7°
Maximum altitude 04:27:56 38° 294° (WNW) 1,089 ? -10.1°
Drops below altitude 10° 04:32:19 10° 227° (SW) 2,181 ? -10.5°
Sets 04:34:41 0° 220° (SW) 3,097 ? -10.7°
